Wind_Speed
16 17 18 20 20 20 19 18 17 17 16 16 17 17 18 18 19 19 19 20 21 22 22 22 22 21 21 21 21 21 21 21 21 21 21 21 20 20 21 20 16 14 14 16 19 22 21 19 18 16 14 12 11 11 11 10 10 10 10 10 10 9 9
17 18 19 20 21 20 19 18 17 16 16 16 17 17 17 18 18 19 20 21 21 22 22 22 22 22 22 22 21 21 21 22 22 22 22 21 21 21 21 20 16 14 15 17 20 22 23 21 19 17 15 13 12 11 11 11 11 11 11 11 11 10 10
18 19 20 20 20 20 19 18 17 16 16 16 17 17 17 18 19 19 20 21 22 22 22 23 22 23 23 23 23 23 23 22 22 21 22 22 22 22 21 19 16 14 15 17 19 22 23 22 20 17 15 13 12 12 11 11 11 11 11 11 12 12 11
19 20 20 20 20 20 18 17 16 16 16 16 16 17 18 19 20 20 21 21 21 22 23 23 23 24 24 24 25 24 23 21 20 20 21 22 21 21 20 17 15 14 15 15 18 22 23 21 19 16 15 14 13 12 11 11 11 12 12 12 12 12 12
19 19 20 20 19 19 18 17 16 16 16 16 17 17 18 19 20 21 21 21 21 22 23 23 23 23 24 24 23 22 20 19 19 20 20 21 20 20 18 16 14 14 14 14 16 20 21 20 18 17 15 15 14 13 12 12 12 12 13 13 13 13 13
19 19 19 19 19 18 17 16 16 16 16 16 17 18 19 20 20 20 21 22 22 23 24 24 23 22 22 21 20 19 18 18 19 19 19 19 19 18 17 15 14 14 15 14 16 18 19 19 18 17 16 15 14 14 13 12 12 12 13 13 13 14 14
19 19 19 19 18 18 17 16 16 16 17 17 18 19 20 20 20 21 22 22 23 23 23 23 22 21 20 18 17 16 17 18 18 19 19 19 18 18 17 16 15 15 15 16 17 18 18 17 17 16 15 14 14 14 13 13 13 12 12 13 13 14 15
19 19 19 18 18 17 16 16 16 17 17 18 19 20 20 21 21 22 23 24 23 23 23 22 21 19 18 17 16 16 17 17 17 18 19 19 19 18 18 16 16 15 15 16 16 17 16 16 15 15 14 14 14 14 14 14 13 13 12 12 14 15 15
19 19 19 18 18 17 16 16 17 17 18 18 19 20 21 21 21 23 24 24 24 24 22 21 19 18 17 17 16 17 17 17 17 17 17 18 18 17 17 16 16 16 15 15 15 15 15 15 15 14 14 14 14 14 14 14 14 14 13 13 13 15 16
20 19 19 18 18 17 17 17 17 17 17 18 19 20 21 22 23 24 25 25 25 24 22 20 19 18 17 17 16 16 16 16 16 16 16 16 16 15 15 15 16 16 15 14 14 14 14 14 13 13 13 14 14 15 15 15 15 15 15 14 14 15 17
20 20 19 19 18 18 17 17 17 17 18 19 20 21 22 23 25 25 25 24 24 23 21 20 19 18 17 17 17 16 16 15 15 15 15 15 14 14 15 15 15 15 14 13 13 13 13 13 13 13 13 14 15 16 16 16 16 16 17 16 15 15 17
20 20 19 19 19 18 18 17 16 17 19 20 21 22 23 24 25 25 25 24 23 22 21 19 19 18 18 17 17 16 16 15 15 15 14 14 14 14 14 14 14 14 13 13 12 13 13 13 13 13 14 15 16 17 17 17 17 18 18 18 18 16 17
20 20 20 19 19 18 18 17 17 18 21 22 24 24 25 25 25 24 24 24 23 22 21 20 19 19 18 18 17 16 16 15 15 14 14 13 13 13 13 13 13 12 12 12 12 13 13 13 14 14 15 16 17 17 18 18 18 18 19 19 19 18 16
20 20 20 19 18 18 18 18 18 20 23 24 25 26 26 25 25 24 24 24 23 22 21 19 19 18 18 18 17 16 16 15 14 14 13 12 12 12 12 12 12 12 12 12 12 13 13 13 14 15 17 17 18 18 18 18 18 19 20 20 20 19 17
20 21 20 19 18 19 19 19 20 23 25 26 27 26 26 26 25 25 25 24 23 22 21 20 19 19 18 17 16 16 15 14 14 13 12 12 12 12 12 12 11 11 11 12 13 12 12 13 14 16 17 18 19 19 19 19 19 19 21 22 22 21 20
21 21 20 19 19 19 19 20 22 24 26 27 27 27 27 26 26 26 25 24 23 22 22 21 20 20 19 17 16 15 15 14 13 13 12 12 12 12 12 11 11 12 12 12 12 12 13 14 14 15 17 18 19 20 19 19 20 20 22 24 25 24 22
22 22 21 20 19 19 20 22 24 26 27 28 28 28 28 27 27 26 25 24 23 23 22 22 21 20 19 17 16 15 15 14 13 12 12 12 12 12 12 11 12 13 13 12 12 12 14 14 15 15 17 18 20 21 20 21 22 22 23 26 27 26 25
22 23 21 20 20 20 21 23 25 27 29 29 29 29 28 28 27 26 25 24 24 24 23 22 21 20 18 17 16 16 15 14 13 12 12 12 12 12 11 12 12 13 13 12 13 14 15 15 16 16 17 18 19 21 22 23 24 24 25 27 27 28 28
24 24 22 21 21 21 22 24 27 29 30 30 30 29 29 28 28 27 26 25 25 25 24 23 21 19 18 18 17 16 15 14 13 12 13 13 12 11 11 13 14 14 14 14 15 15 16 16 17 17 17 18 19 21 23 25 26 26 27 28 28 28 28
25 24 23 23 23 23 24 26 28 30 30 30 30 30 30 29 28 27 26 26 26 26 24 23 21 20 19 18 17 16 15 14 13 13 13 13 12 12 13 14 14 15 16 16 16 16 17 17 18 18 18 19 20 21 24 25 27 27 27 28 28 27 28
26 25 24 24 24 25 26 28 29 30 31 30 30 30 30 29 28 26 26 26 26 25 24 23 21 20 20 19 17 16 15 14 14 14 13 13 13 14 14 15 15 16 17 17 17 17 18 18 19 19 19 20 21 23 25 26 27 28 27 28 28 27 28
26 26 26 25 25 26 28 29 30 31 31 31 30 30 30 29 27 26 26 27 26 25 24 22 21 20 20 19 17 16 15 15 15 14 14 13 14 15 16 16 17 18 18 18 18 19 19 19 19 20 20 21 22 24 25 26 27 27 27 27 28 28 29
28 27 27 27 27 28 30 31 32 33 32 31 30 30 29 28 27 27 27 27 26 25 24 23 22 22 20 19 17 16 16 15 15 14 14 14 15 16 17 18 18 18 19 20 20 21 21 20 20 21 21 22 23 24 25 25 25 26 27 27 28 28 29
29 28 29 29 30 31 32 33 34 33 32 31 31 30 28 28 28 28 28 27 26 25 24 23 23 22 21 19 18 18 17 16 15 15 15 15 16 17 18 18 19 20 21 21 22 23 23 22 21 22 23 24 24 25 24 24 25 26 27 27 28 28 28
30 29 29 30 31 32 33 34 34 34 33 32 31 30 29 28 28 28 28 28 27 26 25 24 24 23 21 20 19 19 17 16 16 15 16 17 17 18 19 19 20 21 22 23 24 24 25 23 22 24 25 26 26 25 25 26 26 27 27 27 28 28 28
30 29 30 31 32 33 33 34 34 34 34 33 32 31 31 30 29 29 29 29 28 26 26 25 24 23 21 21 20 19 18 17 16 16 17 18 18 19 19 20 21 22 23 25 25 26 26 25 25 26 27 27 28 27 26 27 28 28 27 26 28 29 29
31 31 31 32 33 33 34 34 34 35 34 34 34 33 33 31 30 31 31 30 29 27 26 25 24 23 22 22 21 19 18 17 17 17 18 19 19 19 20 20 22 23 25 26 26 27 27 26 27 28 28 28 29 29 27 27 29 29 28 27 28 30 30
31 31 31 32 33 34 34 34 35 35 34 33 33 34 33 32 32 32 32 30 29 27 26 25 24 24 23 22 21 19 18 18 18 18 19 19 19 19 20 21 23 25 26 26 27 28 28 28 29 29 29 29 30 29 28 27 29 30 29 27 28 30 31
30 30 30 31 32 33 33 33 32 32 31 32 32 33 32 31 31 31 31 29 28 26 26 25 25 24 24 22 21 19 18 18 18 19 19 20 20 20 21 23 24 25 26 27 28 29 29 29 30 30 30 30 30 30 28 28 30 31 30 28 28 31 31
28 28 28 29 31 31 31 30 29 29 30 31 32 31 31 30 29 28 28 28 27 26 26 26 25 25 24 22 21 19 18 19 19 20 20 20 21 22 23 24 25 26 26 28 29 30 30 31 31 31 30 30 31 31 29 29 30 30 29 29 29 31 31
28 28 27 28 29 30 30 29 28 28 29 30 30 30 29 28 27 27 27 27 26 26 27 26 25 25 23 21 20 20 19 20 21 21 21 22 23 23 24 25 26 26 27 29 30 30 31 31 31 32 31 31 32 32 31 29 29 28 29 29 30 31 32
26 27 27 27 27 28 29 29 28 27 26 26 27 27 27 26 26 26 26 27 27 27 27 26 25 24 22 21 21 20 20 21 22 22 23 23 24 24 25 25 26 27 29 30 31 31 32 32 32 32 32 32 32 32 32 30 28 27 28 29 30 31 32
24 24 25 25 25 25 25 25 24 23 22 21 23 24 25 26 26 26 26 26 26 26 25 25 24 23 21 21 21 21 22 23 24 24 24 25 25 26 26 27 28 29 30 31 32 32 33 32 32 32 32 33 32 32 31 30 29 28 28 29 31 32 32
23 22 22 22 21 21 20 20 20 20 20 20 21 23 24 24 24 25 25 25 25 24 23 22 22 21 21 21 22 23 24 24 24 24 25 26 27 27 28 28 29 31 32 32 33 34 34 33 33 32 33 33 32 31 31 31 31 30 29 30 31 31 32
21 20 19 19 18 17 17 17 18 19 19 19 20 21 22 23 23 24 24 24 23 22 21 21 21 21 22 23 23 24 24 24 25 25 26 27 28 29 30 31 31 32 33 33 34 35 35 34 34 33 33 33 33 32 32 32 31 31 30 31 31 31 32
18 17 17 16 16 15 15 15 15 16 16 17 18 19 20 21 22 22 22 22 21 21 21 21 22 23 23 24 24 24 25 25 26 27 27 28 30 31 32 32 33 33 34 34 35 35 35 35 35 34 33 33 34 33 33 33 32 31 31 31 31 32 32
Wind_Direction
254 254 256 259 263 266 269 270 269 268 266 265 264 260 253 247 243 237 230 225 225 224 224 226 225 223 222 221 219 215 212 210 207 206 203 203 208 211 213 221 229 235 241 243 234 226 222 220 217 216 217 218 217 219 222 225 232 239 244 249 253 258 264
252 251 254 258 262 266 268 268 268 266 264 262 261 258 252 246 240 237 232 228 228 228 225 222 221 218 214 210 208 205 203 202 202 202 204 211 221 222 219 222 226 229 235 238 233 223 217 216 217 218 220 222 223 224 226 230 236 242 249 255 260 266 271
250 251 254 258 262 265 266 266 266 265 262 260 257 254 249 244 240 237 235 234 232 228 223 218 214 211 208 205 203 202 201 201 202 209 217 225 232 229 222 221 224 227 231 233 230 222 215 214 216 219 223 226 229 231 232 235 241 246 252 258 264 269 274
250 252 255 257 260 264 265 265 263 261 259 256 254 250 245 242 240 238 237 236 233 226 219 213 209 206 204 203 203 202 204 209 215 223 229 232 232 227 218 215 218 222 225 229 229 221 214 214 216 221 226 229 233 236 238 241 246 251 256 260 266 271 277
251 252 255 257 258 260 262 261 259 257 255 252 249 246 242 239 239 238 235 231 227 221 215 209 205 203 202 202 205 208 213 221 227 231 233 231 226 219 212 207 209 216 218 219 222 221 217 216 217 221 226 231 234 236 239 243 247 253 259 265 272 276 280
252 253 255 257 258 259 258 257 255 253 251 248 245 242 240 237 235 233 229 222 216 212 209 206 203 203 204 205 210 216 223 228 231 231 229 224 217 209 205 203 205 212 213 209 211 216 219 220 219 222 227 232 237 239 242 246 249 255 262 269 275 280 285
253 254 255 257 257 258 257 255 253 250 247 245 242 240 237 233 229 226 221 213 208 205 203 202 202 203 208 214 220 226 230 231 230 226 220 213 207 202 200 201 204 208 209 207 207 212 217 220 222 225 230 236 241 246 250 253 257 262 269 275 280 285 289
252 255 256 257 256 255 255 254 252 249 246 243 240 237 233 229 224 219 214 208 205 204 203 201 203 208 216 223 228 230 231 229 226 221 214 206 200 198 197 199 204 207 207 207 208 213 217 220 224 228 233 240 246 251 255 259 262 265 269 275 280 284 287
251 254 256 257 256 255 254 253 251 248 244 242 238 232 227 222 218 214 211 208 206 205 205 208 212 218 224 228 230 230 229 226 221 215 209 202 197 196 198 201 206 208 208 208 209 213 217 221 227 233 240 247 253 258 262 265 268 269 270 273 280 285 288
251 255 256 257 257 256 254 252 250 247 242 237 231 227 222 216 212 209 209 209 208 209 211 216 222 226 229 230 230 229 226 222 217 210 204 200 198 198 202 206 210 212 213 214 213 216 221 227 232 239 247 254 259 263 267 270 273 277 280 282 285 289 293
251 254 256 256 256 256 253 251 249 245 238 230 224 221 218 213 209 208 209 210 212 216 219 223 227 229 230 229 227 225 221 215 209 204 200 199 200 203 207 211 214 216 217 219 221 224 230 236 242 247 253 258 263 267 271 275 279 282 285 287 288 291 294
252 254 255 255 255 254 251 248 244 239 232 224 218 214 212 211 211 211 212 214 216 220 223 227 230 230 228 225 221 217 212 206 202 200 199 201 203 206 210 213 216 218 219 222 226 231 238 244 250 256 261 265 268 272 275 278 282 286 289 291 292 294 299
250 254 255 255 255 254 251 246 238 232 227 220 215 212 210 212 215 216 217 218 220 224 227 229 231 229 226 221 214 208 204 202 203 203 204 206 208 211 214 217 220 223 225 230 233 239 245 251 258 263 266 268 271 274 277 280 284 288 290 291 292 296 301
250 253 256 256 254 252 248 241 233 227 223 218 214 213 212 213 215 217 219 222 224 227 229 228 227 225 222 217 210 204 203 205 207 209 210 212 214 218 222 225 228 230 234 237 240 244 250 256 262 266 267 270 273 275 279 282 285 289 290 291 293 297 302
250 252 254 254 252 248 243 236 229 224 220 217 215 214 214 214 215 217 219 223 225 227 226 224 221 218 215 211 208 206 207 210 213 215 217 219 221 226 229 232 234 237 238 241 244 249 255 258 263 268 272 275 277 278 282 285 288 291 292 293 294 297 302
249 251 251 250 248 246 240 233 226 222 219 217 217 216 216 216 217 218 221 223 225 225 223 220 217 213 210 209 210 211 213 215 218 220 222 225 228 231 234 236 238 240 242 245 250 255 259 262 266 270 275 278 279 282 286 288 291 294 293 293 296 300 307
249 251 251 247 244 241 236 230 224 220 219 219 218 218 218 218 219 220 222 224 224 223 220 217 215 212 210 210 212 215 217 219 222 225 227 231 234 236 240 242 244 248 250 254 260 264 266 269 272 274 277 280 284 288 290 290 293 295 294 295 299 305 310
249 250 249 245 241 236 232 228 223 220 219 219 219 220 220 221 222 223 224 225 223 220 217 215 213 211 211 213 215 217 220 222 224 228 231 235 239 242 246 250 253 258 262 265 268 270 273 276 277 277 279 282 286 290 292 293 295 296 295 297 302 306 308
247 248 246 242 237 232 228 225 222 219 219 220 220 221 222 223 224 224 226 225 222 218 215 213 211 211 212 215 218 220 221 223 225 229 234 239 242 245 250 255 261 266 269 271 272 273 275 277 278 279 281 283 286 288 289 291 292 293 294 297 300 302 302
245 246 244 239 234 228 224 222 221 219 220 222 222 223 225 225 225 226 227 225 222 218 215 212 211 212 215 218 220 221 222 224 227 231 236 240 244 248 252 258 264 268 270 272 274 275 276 277 278 280 282 283 284 284 283 285 286 289 291 293 295 296 295
245 243 240 235 232 227 222 220 219 219 221 224 225 226 227 227 227 228 227 224 221 218 215 213 213 215 218 220 221 223 224 226 230 234 239 243 246 251 255 259 264 267 270 272 273 274 274 274 275 277 278 279 279 278 278 281 284 287 288 289 291 292 291
245 243 238 232 228 225 221 219 219 220 223 226 228 228 229 229 229 228 224 221 219 216 214 214 214 217 221 222 223 226 227 229 233 237 241 245 250 255 260 264 266 269 271 272 271 271 271 271 272 274 275 275 275 275 277 281 284 286 287 288 290 290 290
243 240 236 230 225 221 219 218 218 221 224 227 229 229 229 230 229 226 222 219 217 216 215 215 217 220 223 225 227 229 232 235 239 242 246 251 256 261 266 270 272 274 274 272 271 271 272 272 273 274 275 274 274 275 278 283 285 287 287 289 289 288 288
242 239 235 230 225 220 217 216 218 221 224 227 229 229 229 230 228 224 220 218 216 216 215 217 220 223 225 227 230 232 236 240 244 249 253 257 261 266 270 274 276 276 275 275 275 275 275 276 278 279 278 277 278 280 284 286 286 286 286 286 286 286 286
242 239 235 231 226 221 218 216 218 221 224 226 228 229 229 228 226 222 219 217 217 216 217 219 223 225 226 228 231 234 238 243 248 252 257 261 265 270 273 275 275 275 275 276 277 278 280 283 285 284 283 284 286 287 288 288 286 284 284 285 285 285 285
243 239 235 231 226 222 220 219 219 221 224 226 228 229 228 225 222 219 218 217 217 217 218 221 224 226 228 231 234 237 240 245 249 254 258 264 269 273 275 276 276 277 277 279 281 282 285 287 288 286 286 287 288 287 288 287 286 285 286 286 285 284 285
243 240 236 232 227 223 221 221 222 223 224 226 228 229 228 224 221 220 219 218 219 218 219 222 225 228 231 234 237 240 243 247 252 256 261 267 272 275 276 276 276 277 279 281 283 284 286 287 286 286 286 286 286 287 288 288 287 287 287 285 283 283 285
247 243 239 235 230 226 222 222 223 225 226 228 231 232 231 227 223 222 222 222 221 221 221 224 227 230 234 236 240 243 246 250 255 260 266 271 273 275 274 274 275 277 279 281 283 283 284 285 285 285 285 286 286 288 290 288 286 286 286 283 280 281 285
251 248 244 240 236 232 229 227 228 228 230 232 235 236 236 232 227 225 225 225 224 223 223 226 229 232 236 239 243 247 250 255 260 264 269 272 273 273 273 273 275 277 279 280 281 282 284 285 285 286 286 286 287 288 288 285 283 283 283 281 279 280 284
250 248 245 241 239 238 236 236 236 234 234 235 236 236 235 232 228 227 226 226 225 224 225 227 230 234 238 242 247 251 255 260 264 268 271 272 272 272 273 274 276 278 279 280 281 283 285 286 286 287 287 286 286 286 284 281 280 281 281 280 279 281 283
248 247 244 241 239 239 238 239 239 239 238 238 237 234 232 229 227 225 224 224 225 225 227 229 232 237 241 246 251 255 259 264 268 271 272 272 272 272 274 275 277 279 280 281 282 284 286 286 286 287 286 285 284 283 282 281 280 280 280 280 279 280 281
248 247 245 243 241 241 241 241 241 241 241 238 234 231 228 227 226 224 223 223 224 226 229 233 236 240 244 249 254 259 263 267 270 272 273 274 274 276 277 279 281 282 282 283 285 286 285 285 285 285 284 284 283 283 284 283 282 280 280 279 278 278 279
247 247 245 244 243 242 243 243 242 241 239 234 228 225 224 224 224 224 224 225 227 230 233 237 240 245 249 255 260 264 266 268 271 273 275 276 278 279 280 282 283 283 284 285 286 286 285 285 285 284 284 284 284 285 285 285 283 282 280 278 278 278 279
245 245 244 244 244 243 241 240 237 234 230 225 222 221 222 223 223 223 225 227 230 234 238 242 248 253 257 261 264 267 269 270 272 274 276 278 280 281 282 282 283 284 285 286 286 286 286 286 286 286 286 287 287 286 286 285 284 282 281 279 279 280 280
245 242 240 239 239 239 236 233 231 228 225 222 220 220 220 221 223 225 228 231 235 240 245 250 255 259 262 265 267 269 271 273 274 275 277 278 280 282 282 283 284 284 285 286 286 286 287 287 287 287 287 288 287 286 284 283 282 281 280 280 280 280 280
244 238 232 229 228 229 231 231 231 231 229 227 225 225 225 226 228 231 234 237 242 246 251 254 259 262 266 269 271 272 274 275 275 277 279 280 281 283 283 284 285 285 285 285 285 286 286 286 287 287 287 286 285 283 282 282 281 280 280 279 279 279 279
Height
1451 1451 1452 1452 1452 1453 1453 1453 1453 1453 1454 1454 1454 1455 1456 1457 1457 1458 1459 1460 1461 1463 1464 1465 1467 1467 1468 1469 1471 1473 1475 1477 1478 1480 1482 1482 1482 1484 1486 1489 1491 1494 1495 1497 1497 1498 1499 1501 1502 1503 1503 1503 1504 1505 1505 1504 1504 1504 1505 1505 1506 1506 1507
1448 1448 1449 1449 1449 1450 1450 1450 1451 1451 1451 1452 1452 1453 1454 1455 1456 1458 1459 1459 1460 1461 1462 1463 1465 1466 1467 1468 1469 1471 1473 1475 1476 1477 1479 1480 1479 1481 1484 1486 1489 1491 1493 1494 1495 1496 1497 1498 1500 1501 1501 1501 1503 1504 1503 1503 1502 1502 1503 1503 1503 1504 1504
1445 1445 1446 1446 1447 1447 1447 1448 1448 1449 1449 1450 1451 1452 1453 1454 1455 1457 1458 1459 1460 1460 1461 1462 1463 1464 1466 1466 1467 1469 1470 1472 1474 1475 1477 1477 1477 1478 1481 1484 1486 1488 1490 1492 1492 1493 1495 1496 1498 1499 1499 1499 1501 1502 1502 1501 1501 1501 1501 1501 1501 1501 1502
1442 1442 1443 1443 1444 1444 1445 1445 1446 1446 1447 1448 1449 1450 1451 1453 1454 1455 1457 1458 1459 1460 1460 1461 1462 1463 1464 1465 1466 1467 1469 1470 1472 1473 1474 1475 1475 1476 1478 1481 1484 1486 1488 1489 1490 1491 1493 1495 1496 1497 1497 1498 1499 1500 1500 1499 1499 1499 1499 1499 1499 1499 1500
1439 1440 1440 1440 1441 1442 1442 1442 1443 1444 1445 1446 1447 1448 1449 1451 1452 1454 1455 1456 1458 1459 1460 1461 1462 1463 1464 1465 1465 1466 1467 1468 1470 1471 1472 1473 1473 1474 1476 1479 1481 1484 1486 1487 1488 1490 1492 1493 1494 1495 1495 1496 1497 1497 1498 1498 1498 1497 1497 1497 1497 1497 1498
1436 1437 1437 1438 1438 1439 1439 1440 1441 1441 1442 1443 1444 1446 1447 1449 1450 1452 1454 1455 1456 1458 1459 1460 1462 1463 1464 1465 1466 1466 1466 1467 1468 1469 1470 1470 1471 1473 1475 1477 1479 1482 1484 1485 1487 1489 1490 1492 1492 1493 1493 1494 1495 1495 1495 1496 1496 1496 1496 1495 1495 1495 1495
1433 1434 1434 1435 1435 1436 1437 1437 1438 1439 1440 1441 1442 1444 1445 1447 1448 1450 1452 1453 1455 1456 1458 1459 1460 1462 1463 1465 1465 1466 1466 1466 1467 1467 1468 1469 1470 1472 1474 1475 1478 1480 1482 1484 1486 1488 1489 1490 1490 1491 1491 1492 1492 1493 1493 1494 1494 1494 1494 1494 1493 1493 1493
1430 1431 1431 1432 1433 1433 1434 1435 1436 1437 1438 1439 1440 1441 1443 1445 1446 1448 1450 1452 1454 1455 1456 1458 1459 1461 1462 1463 1464 1465 1465 1466 1466 1466 1467 1468 1469 1471 1472 1474 1476 1479 1481 1482 1484 1486 1486 1487 1488 1488 1489 1489 1489 1490 1491 1491 1491 1491 1492 1492 1491 1490 1491
1428 1428 1429 1429 1430 1431 1432 1433 1434 1435 1436 1437 1438 1440 1441 1443 1445 1447 1449 1450 1452 1454 1455 1457 1458 1460 1461 1462 1463 1464 1464 1465 1465 1466 1466 1467 1468 1469 1471 1473 1475 1477 1479 1481 1482 1483 1484 1485 1485 1485 1485 1486 1486 1487 1488 1488 1488 1488 1489 1489 1489 1488 1488
1425 1425 1426 1427 1428 1429 1429 1430 1432 1433 1434 1435 1437 1438 1440 1441 1443 1445 1447 1449 1451 1452 1454 1456 1457 1458 1460 1461 1462 1462 1463 1464 1464 1465 1466 1466 1467 1469 1470 1472 1474 1475 1477 1479 1480 1481 1482 1482 1483 1483 1483 1483 1484 1484 1485 1485 1485 1485 1485 1486 1486 1485 1484
1422 1423 1424 1425 1425 1426 1427 1428 1429 1431 1432 1433 1435 1437 1439 1440 1442 1444 1446 1448 1449 1451 1452 1454 1455 1457 1458 1459 1460 1461 1462 1462 1463 1464 1465 1466 1467 1468 1469 1471 1472 1474 1475 1477 1478 1479 1479 1479 1480 1480 1481 1481 1481 1481 1482 1482 1482 1482 1482 1482 1483 1483 1482
1419 1420 1421 1422 1423 1424 1425 1426 1427 1429 1430 1432 1433 1435 1437 1439 1441 1443 1445 1446 1448 1449 1451 1452 1454 1455 1456 1457 1458 1459 1460 1461 1462 1463 1464 1465 1466 1467 1468 1469 1471 1472 1473 1475 1476 1476 1477 1477 1477 1478 1478 1478 1478 1478 1479 1479 1479 1479 1479 1479 1479 1480 1480
1416 1418 1419 1420 1420 1421 1422 1424 1425 1427 1428 1430 1432 1434 1436 1438 1440 1442 1444 1445 1447 1448 1449 1450 1452 1453 1454 1455 1456 1458 1459 1460 1461 1462 1463 1464 1465 1466 1467 1468 1469 1471 1472 1473 1474 1474 1475 1475 1475 1475 1475 1475 1475 1476 1476 1476 1476 1476 1475 1475 1476 1477 1478
1414 1415 1416 1417 1418 1419 1420 1422 1423 1425 1427 1428 1430 1432 1434 1436 1438 1440 1442 1444 1445 1447 1448 1449 1450 1451 1452 1454 1455 1456 1457 1458 1460 1461 1462 1463 1464 1465 1465 1466 1467 1469 1470 1471 1472 1472 1473 1473 1473 1472 1472 1472 1472 1472 1473 1473 1473 1473 1472 1472 1472 1473 1475
1411 1412 1413 1414 1416 1416 1418 1419 1421 1422 1425 1427 1429 1431 1432 1434 1436 1438 1440 1442 1443 1444 1446 1447 1448 1449 1451 1452 1453 1454 1456 1457 1458 1459 1461 1461 1462 1463 1464 1464 1466 1467 1468 1469 1470 1470 1471 1471 1471 1470 1469 1469 1469 1469 1470 1469 1470 1470 1468 1467 1468 1469 1470
1408 1409 1410 1412 1413 1414 1415 1417 1418 1420 1423 1425 1427 1429 1430 1432 1434 1436 1438 1439 1441 1442 1443 1445 1446 1447 1448 1450 1451 1453 1454 1455 1457 1458 1459 1459 1460 1461 1462 1463 1464 1465 1466 1467 1467 1468 1468 1468 1468 1468 1467 1466 1466 1466 1466 1466 1466 1466 1465 1463 1463 1464 1465
1406 1407 1408 1409 1410 1411 1413 1414 1416 1418 1420 1422 1425 1427 1428 1430 1431 1433 1435 1437 1439 1440 1441 1442 1444 1445 1446 1448 1449 1451 1452 1454 1455 1456 1457 1457 1458 1459 1460 1461 1462 1462 1463 1464 1465 1465 1465 1465 1465 1465 1464 1463 1462 1462 1462 1462 1462 1462 1461 1459 1458 1458 1458
1403 1404 1405 1406 1407 1408 1410 1411 1413 1415 1417 1420 1422 1424 1426 1428 1429 1431 1433 1435 1437 1438 1439 1441 1442 1443 1445 1446 1447 1449 1450 1452 1453 1454 1455 1455 1456 1457 1457 1458 1459 1459 1460 1461 1462 1462 1462 1462 1462 1462 1462 1461 1460 1458 1458 1458 1458 1457 1456 1455 1454 1453 1453
1400 1401 1402 1403 1404 1406 1407 1409 1411 1413 1414 1417 1420 1422 1424 1425 1427 1428 1430 1432 1434 1436 1437 1439 1440 1441 1443 1444 1445 1447 1448 1449 1451 1451 1452 1453 1454 1454 1455 1455 1456 1456 1457 1458 1458 1459 1459 1459 1459 1459 1459 1458 1458 1456 1455 1454 1454 1453 1452 1451 1451 1451 1450
1396 1398 1399 1400 1402 1403 1404 1406 1408 1410 1412 1414 1417 1420 1421 1423 1424 1426 1428 1430 1431 1433 1435 1436 1438 1439 1441 1442 1443 1445 1446 1447 1448 1449 1450 1451 1451 1452 1452 1452 1453 1454 1454 1455 1455 1456 1456 1456 1456 1456 1456 1455 1455 1454 1452 1451 1450 1449 1449 1448 1448 1448 1448
1393 1395 1396 1397 1399 1400 1402 1404 1405 1408 1409 1412 1415 1417 1418 1420 1421 1423 1425 1427 1429 1431 1433 1434 1436 1437 1438 1440 1441 1442 1444 1445 1446 1446 1447 1448 1448 1449 1449 1450 1451 1451 1451 1452 1452 1453 1453 1453 1453 1453 1453 1453 1452 1451 1450 1448 1447 1446 1446 1445 1445 1445 1444
1390 1392 1393 1394 1396 1397 1399 1401 1403 1405 1407 1410 1412 1414 1416 1418 1419 1420 1422 1424 1426 1428 1430 1432 1434 1435 1436 1437 1439 1440 1441 1442 1443 1444 1445 1446 1446 1446 1447 1447 1448 1448 1449 1449 1449 1450 1450 1450 1450 1450 1450 1450 1449 1448 1446 1445 1444 1443 1442 1442 1441 1441 1439
1387 1388 1390 1391 1392 1394 1397 1399 1401 1403 1405 1407 1410 1412 1414 1415 1417 1418 1419 1421 1423 1425 1427 1429 1431 1432 1433 1435 1436 1438 1439 1440 1441 1442 1443 1443 1444 1444 1444 1444 1445 1445 1445 1445 1446 1446 1447 1447 1447 1447 1447 1446 1445 1444 1443 1443 1441 1440 1439 1438 1437 1436 1435
1383 1385 1386 1388 1389 1391 1393 1396 1398 1400 1403 1405 1407 1410 1412 1413 1414 1415 1417 1418 1420 1423 1424 1426 1427 1428 1430 1432 1433 1435 1436 1437 1438 1439 1440 1441 1441 1441 1441 1441 1441 1441 1441 1441 1442 1442 1443 1443 1444 1443 1442 1442 1441 1440 1440 1439 1438 1436 1435 1435 1434 1433 1432
1380 1382 1383 1385 1387 1388 1390 1393 1396 1398 1400 1402 1405 1407 1409 1411 1412 1413 1414 1416 1418 1419 1421 1423 1424 1425 1427 1429 1430 1431 1433 1434 1435 1436 1437 1438 1438 1438 1438 1438 1438 1438 1437 1438 1438 1438 1438 1439 1439 1438 1437 1436 1436 1435 1435 1434 1434 1433 1432 1431 1430 1428 1428
1378 1379 1381 1382 1384 1386 1388 1390 1393 1395 1398 1400 1402 1404 1406 1408 1410 1411 1412 1413 1415 1416 1418 1420 1421 1423 1424 1426 1427 1428 1430 1431 1432 1433 1434 1434 1434 1435 1434 1434 1434 1434 1433 1433 1434 1433 1433 1434 1434 1433 1432 1432 1431 1431 1431 1430 1429 1428 1428 1427 1425 1423 1423
1376 1377 1378 1380 1381 1383 1385 1388 1390 1392 1395 1397 1399 1401 1403 1406 1407 1409 1410 1411 1412 1414 1415 1417 1419 1420 1422 1423 1424 1426 1427 1428 1429 1430 1431 1431 1431 1431 1430 1430 1430 1429 1429 1429 1429 1429 1429 1430 1429 1429 1428 1428 1427 1427 1427 1426 1424 1423 1423 1423 1421 1418 1418
1373 1375 1377 1378 1380 1381 1382 1384 1386 1389 1392 1394 1397 1399 1401 1403 1405 1406 1407 1409 1410 1411 1413 1415 1416 1417 1419 1420 1422 1423 1425 1425 1426 1427 1427 1427 1427 1427 1427 1426 1426 1425 1425 1425 1425 1425 1425 1425 1425 1424 1424 1423 1422 1422 1422 1421 1419 1418 1418 1418 1416 1414 1413
1371 1373 1375 1377 1379 1379 1381 1382 1384 1387 1390 1393 1395 1397 1399 1401 1403 1405 1406 1407 1408 1409 1411 1412 1413 1415 1416 1417 1419 1420 1422 1422 1423 1424 1424 1424 1424 1423 1423 1422 1422 1422 1422 1421 1420 1420 1420 1420 1420 1420 1420 1419 1418 1418 1418 1417 1415 1414 1414 1413 1412 1409 1409
1369 1371 1373 1374 1376 1378 1379 1381 1383 1386 1389 1391 1393 1395 1397 1399 1401 1403 1404 1405 1406 1407 1408 1409 1410 1412 1413 1415 1416 1417 1419 1419 1419 1420 1420 1420 1420 1419 1419 1418 1418 1418 1418 1417 1416 1416 1415 1415 1415 1415 1415 1414 1413 1413 1414 1413 1412 1410 1409 1408 1407 1405 1405
1368 1369 1370 1372 1373 1375 1377 1379 1382 1384 1386 1388 1390 1392 1394 1396 1398 1400 1401 1402 1403 1404 1405 1406 1408 1409 1410 1412 1413 1414 1415 1415 1415 1416 1416 1416 1416 1415 1415 1415 1414 1414 1413 1412 1412 1411 1411 1410 1410 1410 1410 1409 1409 1408 1409 1408 1407 1406 1404 1403 1402 1401 1401
1366 1368 1369 1370 1371 1373 1375 1377 1379 1381 1383 1386 1388 1390 1392 1393 1395 1396 1398 1399 1400 1401 1402 1404 1405 1406 1408 1409 1410 1411 1411 1411 1411 1412 1412 1411 1411 1411 1411 1411 1410 1409 1408 1408 1407 1407 1406 1406 1405 1405 1404 1404 1404 1403 1402 1402 1402 1401 1400 1399 1398 1397 1396
1364 1366 1367 1369 1370 1372 1374 1375 1377 1379 1381 1383 1385 1387 1389 1390 1392 1393 1395 1396 1397 1398 1400 1401 1402 1404 1405 1406 1406 1407 1407 1407 1407 1407 1407 1407 1407 1407 1407 1407 1406 1405 1404 1403 1403 1402 1401 1401 1401 1400 1399 1398 1398 1397 1396 1396 1396 1396 1396 1394 1393 1393 1392
1362 1363 1365 1367 1369 1370 1372 1373 1375 1377 1378 1380 1382 1384 1386 1387 1389 1390 1392 1393 1395 1396 1398 1399 1400 1401 1402 1403 1403 1403 1403 1402 1402 1402 1402 1402 1402 1402 1402 1402 1401 1400 1399 1399 1398 1397 1396 1396 1395 1394 1393 1392 1392 1391 1390 1390 1390 1390 1390 1389 1389 1388 1387
1360 1361 1363 1365 1367 1369 1371 1372 1373 1375 1376 1378 1380 1381 1383 1385 1387 1388 1390 1391 1393 1394 1396 1397 1398 1399 1399 1400 1400 1399 1399 1398 1398 1398 1398 1397 1397 1397 1397 1396 1396 1395 1395 1394 1393 1392 1391 1391 1390 1389 1388 1387 1386 1385 1385 1385 1385 1385 1385 1384 1384 1383 1383
1359 1360 1361 1363 1365 1367 1369 1370 1372 1373 1375 1377 1378 1380 1382 1384 1385 1387 1388 1389 1390 1392 1393 1394 1394 1395 1396 1396 1396 1396 1395 1395 1394 1394 1393 1393 1392 1392 1391 1391 1391 1390 1389 1389 1388 1387 1387 1386 1385 1384 1383 1382 1381 1380 1380 1380 1380 1380 1380 1379 1379 1378 1378